| time (UTC) | temp F | wind direction | speed MPH | gust MPH | rain 1hr in | rain 24hr in | rain mn in | humidity % | barometer mb |
| 20260904093103 | 73 | 0 | 0.0 | 0.0 | 0.00 | 0.00 | 0.00 | 91 | 1016.6 |
| 20260904091553 | 74 | 0 | 0.0 | 0.0 | 0.00 | 0.00 | 0.00 | 91 | 1016.4 |
| 20260904090058 | 74 | 0 | 0.0 | 0.0 | 0.00 | 0.00 | 0.00 | 91 | 1016.6 |
| 20260904084605 | 73 | 0 | 0.0 | 0.0 | 0.00 | 0.00 | 0.00 | 92 | 1016.3 |
| 20260904083104 | 73 | 0 | 0.0 | 0.0 | 0.00 | 0.00 | 0.00 | 91 | 1016.4 |
| 20260904081559 | 74 | 0 | 0.0 | 0.0 | 0.00 | 0.00 | 0.00 | 91 | 1016.4 |
| 20260904080056 | 74 | 0 | 0.0 | 0.0 | 0.00 | 0.00 | 0.00 | 89 | 1016.5 |
| 20260904074613 | 75 | 0 | 0.0 | 0.0 | 0.00 | 0.00 | 0.00 | 89 | 1016.4 |
| 20260904073103 | 74 | 0 | 0.0 | 0.0 | 0.00 | 0.00 | 0.00 | 91 | 1016.5 |
| 20260904071601 | 74 | 0 | 0.0 | 0.0 | 0.00 | 0.00 | 0.00 | 90 | 1016.4 |
| 20260904070056 | 75 | 0 | 0.0 | 0.0 | 0.00 | 0.00 | 0.00 | 87 | 1016.6 |
| 20260904064603 | 76 | 0 | 0.0 | 0.0 | 0.00 | 0.00 | 0.00 | 86 | 1016.7 |
| 20260904063106 | 77 | 0 | 0.0 | 0.0 | 0.00 | 0.00 | 0.00 | 85 | 1016.7 |
| 20260904061609 | 76 | 0 | 0.0 | 0.0 | 0.00 | 0.00 | 0.00 | 85 | 1017.0 |
| 20260904060110 | 76 | 0 | 0.0 | 0.0 | 0.00 | 0.00 | 0.00 | 86 | 1016.9 |
| 20260904054556 | 78 | 0 | 0.0 | 0.0 | 0.00 | 0.00 | 0.00 | 82 | 1017.1 |
| 20260904053055 | 79 | 0 | 0.0 | 0.0 | 0.00 | 0.00 | 0.00 | 80 | 1017.2 |
| 20260904051608 | 79 | 0 | 0.0 | 0.0 | 0.00 | 0.00 | 0.00 | 80 | 1017.1 |
| 20260904050056 | 79 | 0 | 0.0 | 0.0 | 0.00 | 0.00 | 0.00 | 80 | 1017.2 |
| 20260904044553 | 79 | 0 | 0.0 | 0.0 | 0.00 | 0.00 | 0.00 | 81 | 1016.9 |
| 20260904043100 | 79 | 0 | 0.0 | 0.0 | 0.00 | 0.00 | 0.00 | 82 | 1017.0 |
| 20260904041555 | 79 | 0 | 0.0 | 0.0 | 0.00 | 0.00 | 0.00 | 82 | 1017.0 |
| 20260904040106 | 79 | 0 | 0.0 | 0.0 | 0.00 | 0.00 | 0.00 | 83 | 1017.0 |
| 20260904034601 | 79 | 0 | 0.0 | 0.0 | 0.00 | 0.00 | 0.00 | 84 | 1016.9 |
| 20260904033059 | 80 | 0 | 0.0 | 0.0 | 0.00 | 0.00 | 0.00 | 81 | 1017.0 |
| 20260904031603 | 80 | 0 | 0.0 | 0.0 | 0.00 | 0.00 | 0.00 | 82 | 1016.9 |
| 20260904030055 | 80 | 0 | 0.0 | 0.0 | 0.00 | 0.00 | 0.00 | 82 | 1017.1 |
| 20260904024552 | 78 | 0 | 0.0 | 0.0 | 0.00 | 0.00 | 0.00 | 87 | 1017.1 |
| 20260904023059 | 78 | 0 | 0.0 | 0.0 | 0.00 | 0.00 | 0.00 | 86 | 1017.3 |
| 20260904021555 | 79 | 0 | 0.0 | 0.0 | 0.00 | 0.00 | 0.00 | 85 | 1017.4 |
| 20260904020052 | 80 | 0 | 0.0 | 0.0 | 0.00 | 0.00 | 0.00 | 82 | 1017.4 |
| 20260904014607 | 80 | 0 | 0.0 | 0.0 | 0.00 | 0.00 | 0.00 | 84 | 1017.2 |
| 20260904013053 | 80 | 0 | 0.0 | 0.0 | 0.00 | 0.00 | 0.00 | 81 | 1017.3 |
| 20260904011553 | 81 | 0 | 0.0 | 0.0 | 0.00 | 0.00 | 0.00 | 79 | 1017.1 |
| 20260904010113 | 82 | 0 | 0.0 | 0.0 | 0.00 | 0.00 | 0.00 | 76 | 1017.1 |
| 20260904004556 | 83 | 0 | 0.0 | 0.0 | 0.00 | 0.00 | 0.00 | 76 | 1016.8 |
| 20260904003053 | 85 | 0 | 0.0 | 0.0 | 0.00 | 0.00 | 0.00 | 73 | 1016.6 |
| 20260904001558 | 87 | 0 | 0.0 | 0.0 | 0.00 | 0.00 | 0.00 | 71 | 1016.3 |
| 20260903234555 | 89 | 0 | 0.0 | 0.0 | 0.00 | 0.00 | 0.00 | 64 | 1016.2 |
| 20260903233104 | 90 | 0 | 0.0 | 0.0 | 0.00 | 0.00 | 0.00 | 62 | 1016.2 |
| 20260903231605 | 91 | 0 | 0.0 | 0.0 | 0.00 | 0.00 | 0.00 | 62 | 1016.2 |
| 20260903230057 | 91 | 0 | 0.0 | 0.0 | 0.00 | 0.00 | 0.00 | 58 | 1016.1 |
| 20260903224602 | 92 | 0 | 0.0 | 6.0 | 0.00 | 0.00 | 0.00 | 57 | 1016.0 |
| 20260903223100 | 92 | 0 | 0.0 | 9.0 | 0.00 | 0.00 | 0.00 | 56 | 1016.0 |
| 20260903221555 | 93 | 360 | 1.0 | 5.0 | 0.00 | 0.00 | 0.00 | 55 | 1015.9 |
| 20260903220054 | 93 | 360 | 1.0 | 8.0 | 0.00 | 0.00 | 0.00 | 54 | 1015.8 |
| 20260903214600 | 93 | 0 | 2.0 | 9.0 | 0.00 | 0.00 | 0.00 | 54 | 1015.8 |
| 20260903213102 | 94 | 360 | 4.0 | 11.0 | 0.00 | 0.00 | 0.00 | 51 | 1015.9 |
| 20260903211557 | 94 | 0 | 0.0 | 7.0 | 0.00 | 0.00 | 0.00 | 53 | 1015.9 |
| 20260903210106 | 94 | 260 | 3.0 | 7.0 | 0.00 | 0.00 | 0.00 | 51 | 1016.0 |
| 20260903204647 | 94 | 360 | 2.0 | 8.0 | 0.00 | 0.00 | 0.00 | 53 | 1016.2 |
| 20260903203055 | 94 | 0 | 4.0 | 10.0 | 0.00 | 0.00 | 0.00 | 52 | 1016.3 |
| 20260903201557 | 94 | 0 | 4.0 | 11.0 | 0.00 | 0.00 | 0.00 | 52 | 1016.6 |
| 20260903200058 | 94 | 360 | 3.0 | 8.0 | 0.00 | 0.00 | 0.00 | 51 | 1016.8 |
| 20260903194605 | 94 | 0 | 3.0 | 9.0 | 0.00 | 0.00 | 0.00 | 51 | 1017.1 |
| 20260903193057 | 94 | 0 | 3.0 | 9.0 | 0.00 | 0.00 | 0.00 | 53 | 1017.2 |
| 20260903191554 | 94 | 360 | 5.0 | 10.0 | 0.00 | 0.00 | 0.00 | 51 | 1017.2 |
| 20260903190054 | 94 | 360 | 2.0 | 7.0 | 0.00 | 0.00 | 0.00 | 53 | 1017.3 |
| 20260903184601 | 94 | 360 | 2.0 | 9.0 | 0.00 | 0.00 | 0.00 | 50 | 1017.4 |
| 20260903183054 | 93 | 360 | 5.0 | 9.0 | 0.00 | 0.00 | 0.00 | 51 | 1017.5 |
| 20260903181559 | 93 | 360 | 2.0 | 10.0 | 0.00 | 0.00 | 0.00 | 50 | 1017.5 |
| 20260903180101 | 93 | 318 | 1.0 | 9.0 | 0.00 | 0.00 | 0.00 | 53 | 1017.7 |
| 20260903174604 | 92 | 360 | 2.0 | 8.0 | 0.00 | 0.00 | 0.00 | 52 | 1017.9 |
| 20260903173053 | 92 | 360 | 5.0 | 9.0 | 0.00 | 0.00 | 0.00 | 54 | 1018.1 |
| 20260903171559 | 92 | 360 | 3.0 | 10.0 | 0.00 | 0.00 | 0.00 | 57 | 1018.1 |
| 20260903170057 | 92 | 0 | 1.0 | 11.0 | 0.00 | 0.00 | 0.00 | 57 | 1018.2 |
| 20260903164553 | 91 | 266 | 2.0 | 9.0 | 0.00 | 0.00 | 0.00 | 57 | 1018.4 |
| 20260903163108 | 91 | 360 | 5.0 | 12.0 | 0.00 | 0.00 | 0.00 | 55 | 1018.6 |
| 20260903161558 | 91 | 360 | 7.0 | 11.0 | 0.00 | 0.00 | 0.00 | 55 | 1018.8 |
| 20260903160106 | 91 | 287 | 3.0 | 9.0 | 0.00 | 0.00 | 0.00 | 58 | 1018.7 |
| 20260903154604 | 90 | 0 | 3.0 | 8.0 | 0.00 | 0.00 | 0.00 | 59 | 1018.7 |
| 20260903153103 | 90 | 360 | 2.0 | 10.0 | 0.00 | 0.00 | 0.00 | 58 | 1018.8 |
| 20260903151550 | 89 | 0 | 0.0 | 8.0 | 0.00 | 0.00 | 0.00 | 60 | 1018.7 |
| 20260903150111 | 89 | 271 | 3.0 | 8.0 | 0.00 | 0.00 | 0.00 | 62 | 1018.7 |
| 20260903144603 | 88 | 0 | 1.0 | 5.0 | 0.00 | 0.00 | 0.00 | 65 | 1018.6 |
| 20260903143117 | 86 | 360 | 3.0 | 5.0 | 0.00 | 0.00 | 0.00 | 69 | 1018.5 |
| 20260903141553 | 85 | 299 | 3.0 | 5.0 | 0.00 | 0.00 | 0.00 | 69 | 1018.6 |
| 20260903140113 | 84 | 285 | 1.0 | 4.0 | 0.00 | 0.00 | 0.00 | 72 | 1018.7 |
| 20260903134554 | 83 | 0 | 1.0 | 4.0 | 0.00 | 0.00 | 0.00 | 74 | 1018.9 |
| 20260903133105 | 82 | 360 | 0.0 | 3.0 | 0.00 | 0.00 | 0.00 | 75 | 1018.9 |
| 20260903131557 | 81 | 0 | 1.0 | 3.0 | 0.00 | 0.00 | 0.00 | 75 | 1019.0 |
| 20260903124603 | 79 | 290 | 0.0 | 2.0 | 0.00 | 0.00 | 0.00 | 79 | 1019.2 |
| 20260903123053 | 78 | 0 | 0.0 | 0.0 | 0.00 | 0.00 | 0.00 | 82 | 1019.1 |
| 20260903121555 | 78 | 0 | 0.0 | 0.0 | 0.00 | 0.00 | 0.00 | 82 | 1019.0 |
| 20260903120108 | 77 | 0 | 0.0 | 18.0 | 0.00 | 0.00 | 0.00 | 82 | 1018.9 |
| 20260903114603 | 77 | 0 | 0.0 | 0.0 | 0.00 | 0.00 | 0.00 | 81 | 1018.9 |
| 20260903113103 | 76 | 0 | 0.0 | 0.0 | 0.00 | 0.00 | 0.00 | 82 | 1018.7 |
| 20260903111552 | 76 | 0 | 0.0 | 0.0 | 0.00 | 0.00 | 0.00 | 83 | 1018.6 |
| 20260903104555 | 75 | 0 | 0.0 | 0.0 | 0.00 | 0.00 | 0.00 | 84 | 1018.4 |
| 20260903103106 | 75 | 0 | 0.0 | 0.0 | 0.00 | 0.00 | 0.00 | 84 | 1018.4 |
| 20260903101603 | 75 | 0 | 0.0 | 0.0 | 0.00 | 0.00 | 0.00 | 84 | 1018.3 |
| 20260903094608 | 74 | 0 | 0.0 | 0.0 | 0.00 | 0.00 | 0.00 | 86 | 1018.3 |